Kununurra, Australia

2:41 AM AWST on February 27, 2017 (GMT +0800)
Kununurra

Weather History for YPKU - October, 2012

Change the Weather History Date:

Monday, October 29, 2012

  Actual Average Record
Temperature  
Mean Temperature 90 °F -  
Max Temperature 106 °F - - ()
Min Temperature 75 °F - - ()
Cooling Degree Days 26    
Growing Degree Days 40 (Base 50)    
Moisture  
Dew Point 62 °F    
Average Humidity 47    
Maximum Humidity 89    
Minimum Humidity 8    
Precipitation  
Precipitation 0.00 in - - ()
Sea Level Pressure  
Sea Level Pressure 29.77 in    
Wind  
Wind Speed 4 mph ()    
Max Wind Speed 12 mph    
Max Gust Speed -    
Visibility 6.4 miles    
Events      
T = Trace of Precipitation, MM = Missing Value Source: Averaged Metar Reports

Daily Weather History Graph

Daily Weather History Graph

Search for Another Location

Airport or City:

Trip Planner

Search our weather history database for the weather conditions in past years. The results will help you decide how hot, cold, wet, or windy it might be!

Date:

Astronomy

Oct. 29, 2012 Rise Set
Actual Time 4:49 AM AWST 5:28 PM AWST
Civil Twilight 4:27 AM AWST 5:50 PM AWST
Nautical Twilight 4:01 AM AWST 6:16 PM AWST
Astronomical Twilight 3:35 AM AWST 6:42 PM AWST
Moon 5:03 PM AWST (10/29) 4:08 AM AWST (10/29)
Length of Visible Light 13h 22m
Length of Day
12h 38m
Full, 100% of the Moon is Illuminated
Oct 29
Full
Oct 30
Full
Nov 7
Last Quarter
Nov 14
New
Nov 20
First Quarter

Hourly Weather History & Observations

Time (AWST) Temp. Heat Index Dew Point Humidity Pressure Visibility Wind Dir Wind Speed Gust Speed Precip Events Conditions
12:00 AM 78 °F - 68 °F 65% 29.78 in - SW 3.5 mph - -  
12:00 AM 78.8 °F - 68.0 °F 69% 29.77 in 6.2 mi SW 3.5 mph - N/A   Unknown
12:30 AM 77.0 °F - 68.0 °F 74% 29.77 in 6.2 mi West 3.5 mph - N/A   Unknown
1:00 AM 78.8 °F - 69.8 °F 74% 29.77 in 6.2 mi Calm Calm - N/A   Unknown
1:30 AM 77.0 °F - 69.8 °F 78% 29.77 in 6.2 mi Calm Calm - N/A   Unknown
2:00 AM 75 °F - 69 °F 75% 29.79 in - Calm Calm - -  
2:00 AM 75.2 °F - 68.0 °F 78% 29.77 in 6.2 mi Calm Calm - N/A   Unknown
2:30 AM 77.0 °F - 69.8 °F 78% 29.80 in 6.2 mi SE 1.2 mph - N/A   Unknown
3:00 AM 76 °F - 70 °F 78% 29.80 in - South 4.6 mph - -  
3:00 AM 77.0 °F - 69.8 °F 78% 29.80 in 6.2 mi South 4.6 mph - N/A   Unknown
3:30 AM 77.0 °F - 69.8 °F 78% 29.80 in 6.2 mi Calm Calm - N/A   Unknown
4:00 AM 77.0 °F - 71.6 °F 83% 29.80 in 6.2 mi South 2.3 mph - N/A   Unknown
4:30 AM 77.0 °F - 71.6 °F 83% 29.80 in 6.2 mi SE 3.5 mph - N/A   Unknown
5:00 AM 77 °F - 72 °F 80% 29.83 in - Calm Calm - -  
5:00 AM 77.0 °F - 71.6 °F 83% 29.83 in 6.2 mi Calm Calm - N/A   Unknown
5:30 AM 77.0 °F - 73.4 °F 89% 29.83 in 6.2 mi South 1.2 mph - N/A   Unknown
6:00 AM 80 °F - 74 °F 77% 29.85 in 6 mi ESE 3.5 mph - -   Partly Cloudy
6:00 AM 80.6 °F 85.4 °F 73.4 °F 79% 29.86 in 6.2 mi ESE 3.5 mph - N/A   Unknown
6:30 AM 82.4 °F 89.5 °F 75.2 °F 79% 29.86 in 6.2 mi East 4.6 mph - N/A   Unknown
7:00 AM 86.0 °F 95.1 °F 75.2 °F 70% 29.86 in 6.2 mi East 5.8 mph - N/A   Unknown
7:30 AM 87.8 °F 97.6 °F 75.2 °F 66% 29.86 in 6.2 mi ESE 3.5 mph - N/A   Unknown
8:00 AM 90 °F - 73 °F 48% 29.85 in - SE 6.9 mph - -  
8:00 AM 89.6 °F 98.2 °F 73.4 °F 59% 29.86 in 6.2 mi SE 6.9 mph - N/A   Unknown
8:30 AM 91.4 °F 96.8 °F 69.8 °F 49% 29.86 in 6.2 mi SE 8.1 mph - N/A   Unknown
9:00 AM 94 °F - 62 °F 24% 29.84 in 12 mi SSE 6.9 mph - -   Partly Cloudy
9:00 AM 95.0 °F 95.2 °F 60.8 °F 32% 29.83 in 6.2 mi SSE 6.9 mph - N/A   Unknown
9:30 AM 98.6 °F 96.4 °F 53.6 °F 22% 29.83 in 6.2 mi ENE 11.5 mph - N/A   Unknown
10:00 AM 98.6 °F 96.4 °F 53.6 °F 22% 29.83 in 6.2 mi ENE 10.4 mph - N/A   Unknown
10:30 AM 98.6 °F - 51.8 °F 21% 29.80 in 6.2 mi NE 10.4 mph - N/A   Unknown
11:00 AM 101 °F - 47 °F 9% 29.80 in - East 10.4 mph - -  
11:00 AM 100.4 °F - 48.2 °F 17% 29.80 in 6.2 mi East 10.4 mph - N/A   Unknown
11:30 AM 102.2 °F - 46.4 °F 15% 29.77 in 6.2 mi NNE 11.5 mph - N/A   Unknown
12:00 PM 103 °F - 46 °F 8% 29.76 in - NNE 8.1 mph - -  
12:00 PM 102.2 °F - 46.4 °F 15% 29.74 in 6.2 mi NNE 8.1 mph - N/A   Unknown
12:30 PM 102.2 °F - 48.2 °F 16% 29.74 in 6.2 mi NNW 9.2 mph - N/A   Unknown
1:00 PM 104.0 °F - 48.2 °F 15% 29.71 in 6.2 mi North 6.9 mph - N/A   Unknown
1:30 PM 102.2 °F - 48.2 °F 16% 29.71 in 6.2 mi East 6.9 mph - N/A   Unknown
2:00 PM 105 °F - 48 °F 8% 29.70 in - ESE 6.9 mph - -  
2:00 PM 104.0 °F - 48.2 °F 15% 29.71 in 6.2 mi ESE 6.9 mph - N/A   Unknown
2:30 PM 104.0 °F - 48.2 °F 15% 29.68 in 6.2 mi NNW 6.9 mph - N/A   Unknown
3:00 PM 103 °F - 50 °F 10% 29.68 in 12 mi NE 5.8 mph - -   Partly Cloudy
3:00 PM 104.0 °F - 50.0 °F 16% 29.68 in 6.2 mi NE 5.8 mph - N/A   Unknown
3:30 PM 102.2 °F - 50.0 °F 17% 29.68 in 6.2 mi North 5.8 mph - N/A   Unknown
4:00 PM 102.2 °F - 50.0 °F 17% 29.68 in 6.2 mi West 4.6 mph - N/A   Unknown
4:30 PM 100.4 °F - 50.0 °F 18% 29.68 in 6.2 mi NW 5.8 mph - N/A   Unknown
5:00 PM 96 °F - 66 °F 28% 29.70 in - North 9.2 mph - -  
5:00 PM 96.8 °F 100.7 °F 66.2 °F 37% 29.68 in 6.2 mi North 9.2 mph - N/A   Unknown
5:30 PM 93.2 °F 94.9 °F 64.4 °F 38% 29.71 in 6.2 mi North 8.1 mph - N/A   Unknown
6:00 PM 91 °F - 64 °F 30% 29.71 in - North 9.2 mph - -  
6:00 PM 91.4 °F 93.2 °F 64.4 °F 41% 29.71 in 6.2 mi North 9.2 mph - N/A   Unknown
6:30 PM 89.6 °F 90.1 °F 62.6 °F 40% 29.71 in 6.2 mi North 8.1 mph - N/A   Unknown
7:00 PM 87.8 °F 89.4 °F 64.4 °F 46% 29.74 in 6.2 mi North 6.9 mph - N/A   Unknown
7:30 PM 87.8 °F 89.4 °F 64.4 °F 46% 29.74 in 6.2 mi North 8.1 mph - N/A   Unknown
8:00 PM 84 °F - 65 °F 44% 29.76 in - North 5.8 mph - -  
8:00 PM 84.2 °F 86.6 °F 66.2 °F 55% 29.77 in 6.2 mi North 5.8 mph - N/A   Unknown
9:00 PM 83 °F - 67 °F 50% 29.78 in - Calm Calm - -  
10:00 PM 80.6 °F 83.2 °F 68.0 °F 65% 29.77 in 6.2 mi North 3.5 mph - N/A   Unknown
11:00 PM 80 °F - 67 °F 57% 29.78 in - NE 6.9 mph - -  
11:00 PM 80.6 °F 83.2 °F 68.0 °F 65% 29.77 in 6.2 mi NE 6.9 mph - N/A   Unknown
11:30 PM 82.4 °F 84.6 °F 66.2 °F 58% 29.77 in 6.2 mi North 8.1 mph - N/A   Unknown